Overview Statistics Trail Chart Weather Telemetry Raw packets
 

This is the latest recevied weather packets stored in our database for station/object K2CAT. If no packets are shown the sender has not sent any weather packets the latest 10 day(s).

<< 24 25 26 27 28 29 30 >>
Time Temp. Humidity Pressure Rain* Wind** Luminosity Snow
1777532083 8.33° C 98% 1008.7 hPa 1.27 mm - 0 W/m² -
1777531778 8.33° C 98% 1008.6 hPa 0 mm - 0 W/m² -
1777531475 8.33° C 98% 1008.7 hPa 0 mm - 0 W/m² -
1777531173 8.33° C 98% 1008.7 hPa 1.78 mm - 0 W/m² -
1777530871 8.33° C 98% 1008.6 hPa 6.6 mm - 0 W/m² -
1777530568 8.33° C 98% 1008.7 hPa 6.1 mm - 0 W/m² -
1777530265 8.89° C 98% 1008.7 hPa 4.32 mm - 0 W/m² -
1777529961 8.89° C 98% 1008.7 hPa 3.05 mm - 0 W/m² -
1777529658 8.33° C 98% 1008.8 hPa 1.78 mm - 0 W/m² -
1777529355 8.33° C 98% 1008.6 hPa 3.05 mm - 0 W/m² -
1777529051 8.33° C 98% 1008.7 hPa 4.32 mm - 0 W/m² -
1777528746 8.89° C 98% 1008.8 hPa 3.05 mm - 0 W/m² -
1777528444 8.89° C 98% 1008.9 hPa 3.05 mm - 0 W/m² -
1777528143 8.89° C 98% 1008.9 hPa 3.05 mm - 0 W/m² -
1777527839 8.89° C 98% 1008.9 hPa 1.27 mm - 0 W/m² -
1777527534 8.89° C 97% 1009 hPa 3.05 mm - 0 W/m² -
1777527230 8.89° C 97% 1009.2 hPa 3.05 mm - 0 W/m² -
1777526926 8.89° C 98% 1009 hPa 3.05 mm - 0 W/m² -
1777526621 8.89° C 98% 1009.2 hPa 4.83 mm - 0 W/m² -
1777526316 8.89° C 98% 1009.2 hPa 4.83 mm - 0 W/m² -
1777526013 8.89° C 98% 1009.4 hPa 6.1 mm - 0 W/m² -
1777525710 8.89° C 98% 1009.2 hPa 7.11 mm - 0 W/m² -
1777525407 8.89° C 98% 1009.2 hPa 4.83 mm - 0 W/m² -
1777525103 8.89° C 98% 1009.1 hPa 3.05 mm - 0 W/m² -
1777524800 8.89° C 97% 1009.2 hPa 3.05 mm - 0 W/m² -

* Rain latest hour (hover to see other rain measurements)
** Current wind speed in m/s (hover to see current wind gust speed)